(195956) = 2002 RP164

Discovered at Palomar on 2002-09-12 by NEAT.

Orbit

Orbit type: Main Belt

Note: WebGL enabled browser required.

epoch2023-02-25.0
epoch JD2460000.5
perihelion date2019-01-21.53593
perihelion JD2458505.03593
argument of perihelion (°)285.05748
ascending node (°)355.60106
inclination (°)5.36552
eccentricity0.1162436
perihelion distance (AU)2.8452210
Tisserand w.r.t. Jupiter3.2
ΔV w.r.t. Earth (km/sec)10.6
semimajor axis (AU)3.2194631
mean anomaly (°)255.15533
mean daily motion (°/day)0.17061950
aphelion distance (AU)3.594
period (years)5.78
P-vector [x]0.18528021
P-vector [y]-0.86186329
P-vector [z]-0.47208358
Q-vector [x]0.98265956
Q-vector [y]0.15898920
Q-vector [z]0.09540771
absolute magnitude15.94
phase slope0.15
uncertainty0
referenceMPO 745323
observations used317
oppositions15
arc length (days)7514
first opposition used2002
last opposition used2023
residual rms (arc-secs)0.73
perturbers coarse indicatorM-v
perturbers precise indicator003Ek
first observation date used2002-09-12.0
last observation date used2023-04-09.0
computer nameMPCLINUX
JD of orbit computation2456966.870435
perihelion JD uncertainty (days)1.4932E-04
argument of perihelion uncertainty (°)4.8587E-05
ascending node uncertainty (°)4.0173E-05
inclination uncertainty (°)5.9929E-06
eccentricity uncertainty 3.1953E-08
perihelion distance uncertainty (AU)1.0378E-07
Minimum Orbit Intersection Distances (in AU)
for orbit epoch: 2460000.5, reference: E2023-G47
Mercury2.38469
Venus2.11972
Earth1.83452
Mars1.39257
Jupiter1.58212
Saturn5.50544
Uranus15.0231
Neptune26.4624

Observations

327 total observations over interval: 2002 09 12.23820 – 2023 04 09.298148
These data are available for download (format description).

Date (UT) J2000 RA J2000 Dec Magn Location Ref
2002 09 12.23820 23 33 07.12 -03 36 38.7 20.1   644 – Palomar Mountain/NEAT MPS 61795
2002 09 12.31674 23 33 03.36 -03 36 53.9 19.6   644 – Palomar Mountain/NEAT MPS 61795
2002 09 12.38727 23 32 59.97 -03 37 07.5 19.8   644 – Palomar Mountain/NEAT MPS 61795
2002 09 14.34563 23 31 28.66 -03 43 28.7 19.2   644 – Palomar Mountain/NEAT MPS 61795
2002 09 14.36651 23 31 27.67 -03 43 32.7 19.9   644 – Palomar Mountain/NEAT MPS 61795
2002 09 14.38766 23 31 26.66 -03 43 37.0 19.7   644 – Palomar Mountain/NEAT MPS 61795
2002 09 15.43052 23 30 37.94 -03 47 00.0 20.3   644 – Palomar Mountain/NEAT MPS 61795
2002 09 15.45279 23 30 36.90 -03 47 04.2 20.6   644 – Palomar Mountain/NEAT MPS 61795
2002 09 15.47380 23 30 35.90 -03 47 08.3 20.3   644 – Palomar Mountain/NEAT MPS 61795
2005 01 17.27319 08 25 53.05 +25 27 39.1 21.0 V 691 – Steward Observatory, Kitt Peak-Spacewatch MPS 180894
2005 01 17.29919 08 25 51.71 +25 27 42.9 21.1 V 691 – Steward Observatory, Kitt Peak-Spacewatch MPS 180894
2005 01 17.32557 08 25 50.34 +25 27 46.8 21.4 V 691 – Steward Observatory, Kitt Peak-Spacewatch MPS 180894
2006 03 04.38648 12 34 42.01 -04 36 33.7   691 – Steward Observatory, Kitt Peak-Spacewatch MPS 180894
2006 03 04.40381 12 34 41.38 -04 36 30.6   691 – Steward Observatory, Kitt Peak-Spacewatch MPS 180894
2006 03 04.42114 12 34 40.75 -04 36 28.8   691 – Steward Observatory, Kitt Peak-Spacewatch MPS 180894
2006 04 07.29973 12 10 06.63 -02 49 41.0 20.4 V G96 – Mt. Lemmon Survey MPS 180894
2006 04 07.30458 12 10 06.49 -02 49 40.0 20.6 V G96 – Mt. Lemmon Survey MPS 180894
2006 04 07.30935 12 10 06.24 -02 49 39.2 20.6 V G96 – Mt. Lemmon Survey MPS 180894
2006 04 07.31421 12 10 06.02 -02 49 37.8 20.4 V G96 – Mt. Lemmon Survey MPS 180894
2006 04 19.12562 12 02 14.17 -02 13 16.4 20.9 V 691 – Steward Observatory, Kitt Peak-Spacewatch MPS 180894
2006 04 19.13833 12 02 13.70 -02 13 13.2 20.8 V 691 – Steward Observatory, Kitt Peak-Spacewatch MPS 180894
2006 04 19.15104 12 02 13.25 -02 13 11.5 20.6 V 691 – Steward Observatory, Kitt Peak-Spacewatch MPS 180894
2006 04 26.14181 11 58 29.66 -01 56 26.5 21.1 V 691 – Steward Observatory, Kitt Peak-Spacewatch MPS 180894
2006 04 26.16989 11 58 28.87 -01 56 23.0 21.4 V 691 – Steward Observatory, Kitt Peak-Spacewatch MPS 180894
2006 04 26.19092 11 58 28.26 -01 56 20.4 21.1 V 691 – Steward Observatory, Kitt Peak-Spacewatch MPS 180894
2008 09 02.37859 01 00 15.86 +07 49 45.8 20.4 V 691 – Steward Observatory, Kitt Peak-Spacewatch MPS 255796
2008 09 02.39615 01 00 15.35 +07 49 44.3 20.4 V 691 – Steward Observatory, Kitt Peak-Spacewatch MPS 255796
2008 09 02.41370 01 00 14.83 +07 49 43.1 20.7 V 691 – Steward Observatory, Kitt Peak-Spacewatch MPS 255796
2008 09 10.40294 00 55 58.10 +07 37 28.2   691 – Steward Observatory, Kitt Peak-Spacewatch MPS 255796
2008 09 10.42051 00 55 57.42 +07 37 26.5   691 – Steward Observatory, Kitt Peak-Spacewatch MPS 255796
2008 09 10.43809 00 55 56.78 +07 37 24.1   691 – Steward Observatory, Kitt Peak-Spacewatch MPS 255796
2008 09 21.19468 00 48 43.61 +07 11 03.5 20.6 V 691 – Steward Observatory, Kitt Peak-Spacewatch MPS 256603
2008 09 21.21225 00 48 42.81 +07 11 00.8 20.6 V 691 – Steward Observatory, Kitt Peak-Spacewatch MPS 256603
2008 09 21.22983 00 48 42.04 +07 10 57.7 20.5 V 691 – Steward Observatory, Kitt Peak-Spacewatch MPS 256603
2008 09 30.98052 00 41 16.48 +06 39 59.8 19.3 V J75 – OAM Observatory, La Sagra MPS 259166
2008 09 30.99381 00 41 15.96 +06 39 55.2 19.0 V J75 – OAM Observatory, La Sagra MPS 259166
2008 10 01.00703 00 41 15.24 +06 39 52.9 19.8 V J75 – OAM Observatory, La Sagra MPS 259166
2008 10 01.32542 00 41 00.42 +06 38 47.4 19.9 V G96 – Mt. Lemmon Survey MPS 257830
2008 10 01.33031 00 41 00.20 +06 38 46.3 20.2 V G96 – Mt. Lemmon Survey MPS 257830
2008 10 01.33520 00 40 59.95 +06 38 45.3 20.1 V G96 – Mt. Lemmon Survey MPS 257830
2008 10 01.34013 00 40 59.70 +06 38 44.4 20.1 V G96 – Mt. Lemmon Survey MPS 257830
2008 10 02.30509 00 40 14.66 +06 35 26.2 20.0 V G96 – Mt. Lemmon Survey MPS 257830
2008 10 02.31248 00 40 14.26 +06 35 24.6 20.1 V G96 – Mt. Lemmon Survey MPS 257830
2008 10 02.31987 00 40 13.90 +06 35 23.2 20.0 V G96 – Mt. Lemmon Survey MPS 257830
2008 10 02.32733 00 40 13.54 +06 35 21.6 20.0 V G96 – Mt. Lemmon Survey MPS 257830
2008 10 02.96233 00 39 43.90 +06 33 10.0 20.4 V J75 – OAM Observatory, La Sagra MPS 259166
2008 10 02.97569 00 39 43.32 +06 33 07.2 20.1 V J75 – OAM Observatory, La Sagra MPS 259166
2008 10 02.98899 00 39 42.62 +06 33 04.6 19.9 V J75 – OAM Observatory, La Sagra MPS 259166
2008 10 10.15626 00 34 11.63 +06 08 07.3 20.4 V 691 – Steward Observatory, Kitt Peak-Spacewatch MPS 259166
2008 10 10.17387 00 34 10.76 +06 08 03.6 20.3 V 691 – Steward Observatory, Kitt Peak-Spacewatch MPS 259166
2008 10 10.19150 00 34 09.94 +06 07 59.7 20.5 V 691 – Steward Observatory, Kitt Peak-Spacewatch MPS 259166
2008 10 17.23305 00 29 03.15 +05 44 03.2 20.4 V 691 – Steward Observatory, Kitt Peak-Spacewatch MPS 260224
2008 10 17.26995 00 29 01.57 +05 43 55.8 20.4 V 691 – Steward Observatory, Kitt Peak-Spacewatch MPS 260224
2008 10 17.30685 00 28 59.98 +05 43 48.6 20.5 V 691 – Steward Observatory, Kitt Peak-Spacewatch MPS 260224
2008 10 24.89284 00 24 06.97 +05 20 20.6   J95 – Great Shefford MPS 261381
2008 10 24.90378 00 24 06.52 +05 20 18.6 20.0 R J95 – Great Shefford MPS 261381
2009 12 18.30742 04 55 58.40 +30 00 34.2 20.5 V G96 – Mt. Lemmon Survey MPS 308472
2009 12 18.31568 04 55 58.00 +30 00 33.4 20.7 V G96 – Mt. Lemmon Survey MPS 308472
2009 12 18.32404 04 55 57.54 +30 00 33.0 20.5 V G96 – Mt. Lemmon Survey MPS 308472
2009 12 18.33240 04 55 57.10 +30 00 31.8 20.8 V G96 – Mt. Lemmon Survey MPS 308472
2011 01 30.53045 09 22 52.946 +20 29 04.08 21.1 w F51 – Pan-STARRS 1, Haleakala MPS 379925
2011 01 30.54556 09 22 52.192 +20 29 06.82 21.2 w F51 – Pan-STARRS 1, Haleakala MPS 379925
2011 01 30.56297 09 22 51.335 +20 29 09.95 21.1 w F51 – Pan-STARRS 1, Haleakala MPS 379925
2011 01 30.57811 09 22 50.632 +20 29 13.16 22.8 w F51 – Pan-STARRS 1, Haleakala MPS 379925
2012 01 06.62881 13 30 16.562 -10 35 16.62 22.2 w F51 – Pan-STARRS 1, Haleakala MPS 406895
2012 01 06.62947 13 30 16.608 -10 35 16.65 22.1 w F51 – Pan-STARRS 1, Haleakala MPS 406895
2012 01 06.63410 13 30 16.815 -10 35 18.22 22.1 w F51 – Pan-STARRS 1, Haleakala MPS 406895
2012 01 06.63476 13 30 16.852 -10 35 18.75 21.8 w F51 – Pan-STARRS 1, Haleakala MPS 406895
2012 01 06.63937 13 30 17.045 -10 35 20.31 22.1 w F51 – Pan-STARRS 1, Haleakala MPS 406895
2012 01 06.64003 13 30 17.102 -10 35 20.38 22.0 w F51 – Pan-STARRS 1, Haleakala MPS 406895
2012 01 06.64533 13 30 17.336 -10 35 22.32 22.0 w F51 – Pan-STARRS 1, Haleakala MPS 406895
2012 01 30.46971 13 45 27.43 -12 37 10.0 20.8 V G96 – Mt. Lemmon Survey MPS 411329
2012 01 30.47964 13 45 27.64 -12 37 12.5 21.0 V G96 – Mt. Lemmon Survey MPS 411329
2012 01 30.48964 13 45 27.97 -12 37 15.1 21.2 V G96 – Mt. Lemmon Survey MPS 411329
2012 01 30.49965 13 45 28.22 -12 37 17.8 21.3 V G96 – Mt. Lemmon Survey MPS 411329
2012 03 15.56172 13 45 37.736 -14 05 44.42 20.5 i F51 – Pan-STARRS 1, Haleakala MPS 417011
2012 03 15.57334 13 45 37.400 -14 05 44.07 20.5 i F51 – Pan-STARRS 1, Haleakala MPS 417011
2012 03 20.47966 13 43 05.712 -14 01 52.82 20.5 r F51 – Pan-STARRS 1, Haleakala MPS 418230
2012 03 20.49004 13 43 05.343 -14 01 52.25 20.6 r F51 – Pan-STARRS 1, Haleakala MPS 418230
2012 03 20.51187 13 43 04.585 -14 01 50.61 20.9 g F51 – Pan-STARRS 1, Haleakala MPS 418230
2012 03 28.52551 13 38 03.656 -13 49 51.52 20.6 g F51 – Pan-STARRS 1, Haleakala MPS 419985
2012 03 28.53651 13 38 03.188 -13 49 50.35 20.7 g F51 – Pan-STARRS 1, Haleakala MPS 419985
2012 03 30.38101 13 36 46.26 -13 46 09.7 20.0 V G96 – Mt. Lemmon Survey MPS 419985
2012 03 30.38687 13 36 45.97 -13 46 09.4 20.1 V G96 – Mt. Lemmon Survey MPS 419985
2012 03 30.39270 13 36 45.72 -13 46 08.4 20.3 V G96 – Mt. Lemmon Survey MPS 419985
2012 03 30.39853 13 36 45.46 -13 46 07.5 20.1 V G96 – Mt. Lemmon Survey MPS 419985
2012 04 16.40020 13 23 40.740 -12 59 41.50 19.9 w F51 – Pan-STARRS 1, Haleakala MPS 421648
2012 04 16.41343 13 23 40.085 -12 59 39.01 19.9 w F51 – Pan-STARRS 1, Haleakala MPS 421649
